(°C)
15°
15°
16°
15°
15°
14°
13°
(°C)
13°
13°
13°
13°
12°
11°
10°
Ю
Ю
Ю
Ю
ЮЮЗ
ЮЮЗ
ЮЮЗ
(км/ч)
11-26
13-30
14-32
15-33
14-32
14-31
13-29
(мм)
0
0
0
0
0.8
0.6
0
(%)
83
83
72
59
71
69
39

Высота солнцестояния

/ 48.8°
sun-icon
UV 3
04:31
22:03
Растущая луна (148°)
19:02
02:47

METAR для 55.27°С 86.11°В (UNEE)

Время Условия Температура/
Точка росы
Ветер Видимость Погода Облачность Давление Изменить Необработанный
MVFR 15°C / 10°C 180º 8kt >10km - Broken Clouds 2200ft 1005 No Significant change. Runway 23: Damp, 51-100% contamination with <1mm, friction coefficient 0.55. UNEE 220800Z 18004MPS 9999 BKN022 15/10 Q1005 R23/190055 NOSIG RMK QFE731
MVFR 15°C / 12°C 140º 8kt >10km - Broken Clouds 1500ft 1005 No Significant change. Runway 23: Damp, 51-100% contamination with <1mm, friction coefficient 0.55. UNEE 220730Z 14004MPS 9999 BKN015 15/12 Q1005 R23/190055 NOSIG RMK QFE731
MVFR 14°C / 12°C 130º 8kt >10km - Broken Clouds 3000ft 1005 No Significant change. Runway 23: Damp, 51-100% contamination with <1mm, friction coefficient 0.55. UNEE 220700Z 13004MPS 9999 BKN030CB 14/12 Q1005 R23/190055 NOSIG RMK QFE731
MVFR 13°C / 11°C 120º 6kt >10km Light Showers Rain 3.00mm precipitation Vertical Visibility of 0ft. 1005 No Significant change. Runway 23: Damp, 51-100% contamination with <1mm, friction coefficient 0.55. UNEE 220630Z 12003MPS 9999 -SHRA BKN016CB 13/11 Q1005 R23/190055 NOSIG RMK QFE731
MVFR 13°C / 12°C 120º 6kt >10km Light Showers Rain 3.00mm precipitation Vertical Visibility of 0ft. 1006 No Significant change. Runway 23: Damp, 51-100% contamination with <1mm, friction coefficient 0.55. UNEE 220600Z 12003MPS 9999 -SHRA BKN017CB 13/12 Q1006 R23/190055 NOSIG RMK QFE731
VFR 13°C / 11°C 110º 4kt 9000m Light Showers Rain 3.00mm precipitation Vertical Visibility of 0ft. 1005 No Significant change. Runway 23: Damp, 51-100% contamination with <1mm, friction coefficient 0.55. UNEE 220530Z 11002MPS 9000 -SHRA BKN033CB 13/11 Q1005 R23/190055 NOSIG RMK QFE731
VFR 13°C / 11°C 40º 4kt >10km Light Showers Rain 3.00mm precipitation Vertical Visibility of 0ft. 1005 No Significant change. Runway 23: Damp, 51-100% contamination with <1mm, friction coefficient 0.55. UNEE 220500Z 04002MPS 9999 -SHRA SCT040CB 13/11 Q1005 R23/190055 NOSIG RMK QFE731
VFR 13°C / 11°C 50º 4kt >10km - Scattered Clouds 4000ft 1005 No Significant change. Runway 23: Damp, 51-100% contamination with <1mm, friction coefficient 0.55. UNEE 220430Z 05002MPS 9999 SCT040 13/11 Q1005 R23/190055 NOSIG RMK QFE731
VFR 13°C / 11°C 40º 4kt >10km - Scattered Clouds 4000ft 1005 No Significant change. Runway 23: Damp, 51-100% contamination with <1mm, friction coefficient 0.55. UNEE 220400Z 04002MPS 9999 SCT040 13/11 Q1005 R23/190055 NOSIG RMK QFE731
VFR 12°C / 10°C 40º 6kt >10km - Scattered Clouds 3000ft 1005 No Significant change. Runway 23: Damp, 51-100% contamination with <1mm, friction coefficient 0.55. UNEE 220330Z 04003MPS 9999 SCT030CB 12/10 Q1005 R23/190055 NOSIG RMK QFE731
VFR 12°C / 11°C 60º 4kt >10km Light Showers Rain 3.00mm precipitation Vertical Visibility of 0ft. 1005 No Significant change. Runway 23: Damp, 51-100% contamination with <1mm, friction coefficient 0.55. UNEE 220300Z 06002MPS 9999 -SHRA SCT030CB 12/11 Q1005 R23/190055 NOSIG RMK QFE731
VFR 12°C / 11°C 80º 4kt >10km Light Showers Rain 3.00mm precipitation Vertical Visibility of 0ft. 1005 No Significant change. Runway 23: Damp, 51-100% contamination with <1mm, friction coefficient 0.55. UNEE 220230Z 08002MPS 9999 -SHRA SCT030CB 12/11 Q1005 R23/190055 NOSIG RMK QFE731
VFR 12°C / 11°C 70º 4kt >10km Light Showers Rain 3.00mm precipitation Vertical Visibility of 0ft. 1005 No Significant change. Runway 23: Damp, 51-100% contamination with <1mm, friction coefficient 0.55. UNEE 220200Z 07002MPS 9999 -SHRA SCT030CB 12/11 Q1005 R23/190055 NOSIG RMK QFE731
VFR 11°C / 10°C 40º 4kt >10km Light Showers Rain 3.00mm precipitation Vertical Visibility of 0ft. 1005 No Significant change. Runway 23: Damp, 51-100% contamination with <1mm, friction coefficient 0.55. UNEE 220130Z 04002MPS 9999 -SHRA SCT030CB 11/10 Q1005 R23/190055 NOSIG RMK QFE731
VFR 11°C / 10°C 40º 4kt >10km Light Showers Rain 3.00mm precipitation Vertical Visibility of 0ft. 1005 No Significant change. Runway 23: Wet or puddles, 51-100% contamination with 1mm, friction coefficient 0.55. UNEE 220100Z 04002MPS 9999 -SHRA SCT030CB 11/10 Q1005 R23/290155 NOSIG RMK QFE731
VFR 10°C / 10°C 40º 4kt >10km Light Showers Rain 3.00mm precipitation Vertical Visibility of 0ft. 1005 No Significant change. Runway 23: Wet or puddles, 51-100% contamination with 1mm, friction coefficient 0.55. UNEE 220030Z 04002MPS 9999 -SHRA SCT030CB 10/10 Q1005 R23/290155 NOSIG RMK QFE731
VFR 10°C / 9°C variable 0kt >10km Light Showers Rain 3.00mm precipitation Vertical Visibility of 0ft. 1005 No Significant change. Runway 23: Wet or puddles, 51-100% contamination with 1mm, friction coefficient 0.55. UNEE 220000Z 00000MPS 9999 -SHRA SCT030CB 10/09 Q1005 R23/290155 NOSIG RMK QFE731
VFR 10°C / 9°C variable 0kt >10km Light Showers Rain 3.00mm precipitation Vertical Visibility of 0ft. 1006 No Significant change. Runway 23: Wet or puddles, 51-100% contamination with 1mm, friction coefficient 0.55. UNEE 212330Z 00000MPS 9999 -SHRA SCT030CB 10/09 Q1006 R23/290155 NOSIG RMK QFE731
VFR 10°C / 9°C 100º 2kt 9000m Light Showers Rain 3.00mm precipitation Vertical Visibility of 0ft. 1006 No Significant change UNEE 212300Z 10001MPS 9000 -SHRA SCT030CB 10/09 Q1006 R23/CLRD60 NOSIG RMK QFE731
MVFR 9°C / 9°C 70º 2kt 7000m Light Showers Rain 3.00mm precipitation Vertical Visibility of 0ft. 1005 No Significant change UNEE 212230Z 07001MPS 7000 -SHRA FEW030CB 09/09 Q1005 R23/CLRD60 NOSIG RMK QFE731
VFR 9°C / 9°C 110º 2kt >10km Light Showers Rain 3.00mm precipitation Vertical Visibility of 0ft. 1006 No Significant change UNEE 212200Z 11001MPS 9999 -SHRA FEW030CB 09/09 Q1006 R23/CLRD60 NOSIG RMK QFE731
VFR 9°C / 9°C 90º 2kt >10km - Clouds and Visibility OK 1006 No Significant change. Runway 23: Damp, 51-100% contamination with <1mm, friction coefficient 0.55. UNEE 212130Z 09001MPS CAVOK 09/09 Q1006 R23/190055 NOSIG RMK QFE731
VFR 9°C / 9°C 150º 2kt >10km - Clouds and Visibility OK 1006 No Significant change. Runway 23: Damp, 51-100% contamination with <1mm, friction coefficient 0.55. UNEE 212100Z 15001MPS CAVOK 09/09 Q1006 R23/190055 NOSIG RMK QFE732
VFR 9°C / 9°C 140º 4kt >10km - Clouds and Visibility OK 1006 No Significant change. Runway 23: Damp, 51-100% contamination with <1mm, friction coefficient 0.55. UNEE 212030Z 14002MPS CAVOK 09/09 Q1006 R23/190055 NOSIG RMK QFE732

MVFR

15°C / 10°C

[Больше]
Ветер 180º 8kt
Видимость >10km
Погода -
Облачность Broken Clouds 2200ft
Давление 1005
Изменить No Significant change. Runway 23: Damp, 51-100% contamination with <1mm, friction coefficient 0.55.
Необработанный UNEE 220800Z 18004MPS 9999 BKN022 15/10 Q1005 R23/190055 NOSIG RMK QFE731

MVFR

15°C / 12°C

[Больше]
Ветер 140º 8kt
Видимость >10km
Погода -
Облачность Broken Clouds 1500ft
Давление 1005
Изменить No Significant change. Runway 23: Damp, 51-100% contamination with <1mm, friction coefficient 0.55.
Необработанный UNEE 220730Z 14004MPS 9999 BKN015 15/12 Q1005 R23/190055 NOSIG RMK QFE731

MVFR

14°C / 12°C

[Больше]
Ветер 130º 8kt
Видимость >10km
Погода -
Облачность Broken Clouds 3000ft
Давление 1005
Изменить No Significant change. Runway 23: Damp, 51-100% contamination with <1mm, friction coefficient 0.55.
Необработанный UNEE 220700Z 13004MPS 9999 BKN030CB 14/12 Q1005 R23/190055 NOSIG RMK QFE731

MVFR

13°C / 11°C

[Больше]
Ветер 120º 6kt
Видимость >10km
Погода Light Showers Rain 3.00mm precipitation
Облачность Vertical Visibility of 0ft.
Давление 1005
Изменить No Significant change. Runway 23: Damp, 51-100% contamination with <1mm, friction coefficient 0.55.
Необработанный UNEE 220630Z 12003MPS 9999 -SHRA BKN016CB 13/11 Q1005 R23/190055 NOSIG RMK QFE731

MVFR

13°C / 12°C

[Больше]
Ветер 120º 6kt
Видимость >10km
Погода Light Showers Rain 3.00mm precipitation
Облачность Vertical Visibility of 0ft.
Давление 1006
Изменить No Significant change. Runway 23: Damp, 51-100% contamination with <1mm, friction coefficient 0.55.
Необработанный UNEE 220600Z 12003MPS 9999 -SHRA BKN017CB 13/12 Q1006 R23/190055 NOSIG RMK QFE731

VFR

13°C / 11°C

[Больше]
Ветер 110º 4kt
Видимость 9000m
Погода Light Showers Rain 3.00mm precipitation
Облачность Vertical Visibility of 0ft.
Давление 1005
Изменить No Significant change. Runway 23: Damp, 51-100% contamination with <1mm, friction coefficient 0.55.
Необработанный UNEE 220530Z 11002MPS 9000 -SHRA BKN033CB 13/11 Q1005 R23/190055 NOSIG RMK QFE731

VFR

13°C / 11°C

[Больше]
Ветер 40º 4kt
Видимость >10km
Погода Light Showers Rain 3.00mm precipitation
Облачность Vertical Visibility of 0ft.
Давление 1005
Изменить No Significant change. Runway 23: Damp, 51-100% contamination with <1mm, friction coefficient 0.55.
Необработанный UNEE 220500Z 04002MPS 9999 -SHRA SCT040CB 13/11 Q1005 R23/190055 NOSIG RMK QFE731

VFR

13°C / 11°C

[Больше]
Ветер 50º 4kt
Видимость >10km
Погода -
Облачность Scattered Clouds 4000ft
Давление 1005
Изменить No Significant change. Runway 23: Damp, 51-100% contamination with <1mm, friction coefficient 0.55.
Необработанный UNEE 220430Z 05002MPS 9999 SCT040 13/11 Q1005 R23/190055 NOSIG RMK QFE731

VFR

13°C / 11°C

[Больше]
Ветер 40º 4kt
Видимость >10km
Погода -
Облачность Scattered Clouds 4000ft
Давление 1005
Изменить No Significant change. Runway 23: Damp, 51-100% contamination with <1mm, friction coefficient 0.55.
Необработанный UNEE 220400Z 04002MPS 9999 SCT040 13/11 Q1005 R23/190055 NOSIG RMK QFE731

VFR

12°C / 10°C

[Больше]
Ветер 40º 6kt
Видимость >10km
Погода -
Облачность Scattered Clouds 3000ft
Давление 1005
Изменить No Significant change. Runway 23: Damp, 51-100% contamination with <1mm, friction coefficient 0.55.
Необработанный UNEE 220330Z 04003MPS 9999 SCT030CB 12/10 Q1005 R23/190055 NOSIG RMK QFE731

VFR

12°C / 11°C

[Больше]
Ветер 60º 4kt
Видимость >10km
Погода Light Showers Rain 3.00mm precipitation
Облачность Vertical Visibility of 0ft.
Давление 1005
Изменить No Significant change. Runway 23: Damp, 51-100% contamination with <1mm, friction coefficient 0.55.
Необработанный UNEE 220300Z 06002MPS 9999 -SHRA SCT030CB 12/11 Q1005 R23/190055 NOSIG RMK QFE731

VFR

12°C / 11°C

[Больше]
Ветер 80º 4kt
Видимость >10km
Погода Light Showers Rain 3.00mm precipitation
Облачность Vertical Visibility of 0ft.
Давление 1005
Изменить No Significant change. Runway 23: Damp, 51-100% contamination with <1mm, friction coefficient 0.55.
Необработанный UNEE 220230Z 08002MPS 9999 -SHRA SCT030CB 12/11 Q1005 R23/190055 NOSIG RMK QFE731

VFR

12°C / 11°C

[Больше]
Ветер 70º 4kt
Видимость >10km
Погода Light Showers Rain 3.00mm precipitation
Облачность Vertical Visibility of 0ft.
Давление 1005
Изменить No Significant change. Runway 23: Damp, 51-100% contamination with <1mm, friction coefficient 0.55.
Необработанный UNEE 220200Z 07002MPS 9999 -SHRA SCT030CB 12/11 Q1005 R23/190055 NOSIG RMK QFE731

VFR

11°C / 10°C

[Больше]
Ветер 40º 4kt
Видимость >10km
Погода Light Showers Rain 3.00mm precipitation
Облачность Vertical Visibility of 0ft.
Давление 1005
Изменить No Significant change. Runway 23: Damp, 51-100% contamination with <1mm, friction coefficient 0.55.
Необработанный UNEE 220130Z 04002MPS 9999 -SHRA SCT030CB 11/10 Q1005 R23/190055 NOSIG RMK QFE731

VFR

11°C / 10°C

[Больше]
Ветер 40º 4kt
Видимость >10km
Погода Light Showers Rain 3.00mm precipitation
Облачность Vertical Visibility of 0ft.
Давление 1005
Изменить No Significant change. Runway 23: Wet or puddles, 51-100% contamination with 1mm, friction coefficient 0.55.
Необработанный UNEE 220100Z 04002MPS 9999 -SHRA SCT030CB 11/10 Q1005 R23/290155 NOSIG RMK QFE731

VFR

10°C / 10°C

[Больше]
Ветер 40º 4kt
Видимость >10km
Погода Light Showers Rain 3.00mm precipitation
Облачность Vertical Visibility of 0ft.
Давление 1005
Изменить No Significant change. Runway 23: Wet or puddles, 51-100% contamination with 1mm, friction coefficient 0.55.
Необработанный UNEE 220030Z 04002MPS 9999 -SHRA SCT030CB 10/10 Q1005 R23/290155 NOSIG RMK QFE731

VFR

10°C / 9°C

[Больше]
Ветер variable 0kt
Видимость >10km
Погода Light Showers Rain 3.00mm precipitation
Облачность Vertical Visibility of 0ft.
Давление 1005
Изменить No Significant change. Runway 23: Wet or puddles, 51-100% contamination with 1mm, friction coefficient 0.55.
Необработанный UNEE 220000Z 00000MPS 9999 -SHRA SCT030CB 10/09 Q1005 R23/290155 NOSIG RMK QFE731

VFR

10°C / 9°C

[Больше]
Ветер variable 0kt
Видимость >10km
Погода Light Showers Rain 3.00mm precipitation
Облачность Vertical Visibility of 0ft.
Давление 1006
Изменить No Significant change. Runway 23: Wet or puddles, 51-100% contamination with 1mm, friction coefficient 0.55.
Необработанный UNEE 212330Z 00000MPS 9999 -SHRA SCT030CB 10/09 Q1006 R23/290155 NOSIG RMK QFE731

VFR

10°C / 9°C

[Больше]
Ветер 100º 2kt
Видимость 9000m
Погода Light Showers Rain 3.00mm precipitation
Облачность Vertical Visibility of 0ft.
Давление 1006
Изменить No Significant change
Необработанный UNEE 212300Z 10001MPS 9000 -SHRA SCT030CB 10/09 Q1006 R23/CLRD60 NOSIG RMK QFE731

MVFR

9°C / 9°C

[Больше]
Ветер 70º 2kt
Видимость 7000m
Погода Light Showers Rain 3.00mm precipitation
Облачность Vertical Visibility of 0ft.
Давление 1005
Изменить No Significant change
Необработанный UNEE 212230Z 07001MPS 7000 -SHRA FEW030CB 09/09 Q1005 R23/CLRD60 NOSIG RMK QFE731

VFR

9°C / 9°C

[Больше]
Ветер 110º 2kt
Видимость >10km
Погода Light Showers Rain 3.00mm precipitation
Облачность Vertical Visibility of 0ft.
Давление 1006
Изменить No Significant change
Необработанный UNEE 212200Z 11001MPS 9999 -SHRA FEW030CB 09/09 Q1006 R23/CLRD60 NOSIG RMK QFE731

VFR

9°C / 9°C

[Больше]
Ветер 90º 2kt
Видимость >10km
Погода -
Облачность Clouds and Visibility OK
Давление 1006
Изменить No Significant change. Runway 23: Damp, 51-100% contamination with <1mm, friction coefficient 0.55.
Необработанный UNEE 212130Z 09001MPS CAVOK 09/09 Q1006 R23/190055 NOSIG RMK QFE731

VFR

9°C / 9°C

[Больше]
Ветер 150º 2kt
Видимость >10km
Погода -
Облачность Clouds and Visibility OK
Давление 1006
Изменить No Significant change. Runway 23: Damp, 51-100% contamination with <1mm, friction coefficient 0.55.
Необработанный UNEE 212100Z 15001MPS CAVOK 09/09 Q1006 R23/190055 NOSIG RMK QFE732

VFR

9°C / 9°C

[Больше]
Ветер 140º 4kt
Видимость >10km
Погода -
Облачность Clouds and Visibility OK
Давление 1006
Изменить No Significant change. Runway 23: Damp, 51-100% contamination with <1mm, friction coefficient 0.55.
Необработанный UNEE 212030Z 14002MPS CAVOK 09/09 Q1006 R23/190055 NOSIG RMK QFE732

TAF для 55.27°С 86.11°В (UNEE)

From till


From till Wind 150º 6kt. Gust 16kt. Visibility 8000m. Light Showers Rain . Broken Clouds 3300ft.
Temporarly from till Wind 190º 14kt. Gust 29kt. Light Thunderstorm Rain . Broken Clouds 1600ft.
Temporarly from till Broken Clouds 500ft. Broken Clouds 1000ft.
Becoming from till Wind 240º 10kt. Gust 19kt. Visibility 8000m. Light Showers Rain . Broken Clouds 3300ft.

Необработанный: TAF UNEE 220800Z 2209/2309 15003G08MPS 8000 -SHRA BKN033CB TEMPO 2209/2218 19007G15MPS -TSRA BKN016CB TEMPO 2218/2306 BKN005 BKN010CB BECMG 2223/2302 24005G10MPS

Текущие спутниковые изображения и снимки дождя для 55.27°С 86.11°В

Указатель местности находится на 55.27°С 86.11°В. [Больше]

Спутниковое изображение в реальном времени сочетает в себе видимый свет в дневное время с инфракрасным излучением в ночное время. Ночью изображение получается не темным, так как инфракрасное излучение может обнаружить разницу температур. К сожалению, низкие облака и туман трудно отличить от температуры у поверхности земли и поэтому могут быть почти незаметны ночью. Спутниковые снимки Meteosat для Европы обновляются каждые 5 минут в режиме реального времени.Снимки GOES-16/GOES-17 (Северная и Южная Америка) и Химавари (Азия) обновляются каждые 10 минут.

Копирайт 2021 EUMETSAT / meteoblue. / Копирайт 2021 meteoblue

Радарный и сверхкраткосрочный прогноз осадков для 55.27°С 86.11°В

Индикатор местности находится на 55.27°С 86.11°В. Анимация показывает радар осадков за последний час, а также прогноз погоды для1h. Умеренная морось или легкий снег могут быть незаметны для радара. Интенсивность осадковмаркированна цветной кодировкой, начиная со светло-синего и заканчивая темно-пурпурным.